Regional Weather Roundup
Issued by NWS

Home | Current Version | Previous Version | Text Only | Print | Product List | Glossary On
Versions: 1 2 3 4 5 6 7 8 9 10 11 12 13 14 15 16 17 18 19 20 21 22 23 24 25 26 27 28 29 30 31 32 33 34 35 36 37 38 39 40 41 42 43 44 45 46 47 48 49 50
000
ASUS44 KFWD 261703
RWRTX
NORTH TEXAS HOURLY WEATHER ROUNDUP
NATIONAL WEATHER SERVICE FORT WORTH TX
1200 PM CDT THU APR 26 2018

NOTE: "FAIR" INDICATES FEW OR NO CLOUDS BELOW 12,000 FEET WITH NO
SIGNIFICANT WEATHER AND/OR OBSTRUCTIONS TO VISIBILITY.

TXZ118-119-261800-
DALLAS/FORT WORTH METROPLEX

CITY           SKY/WX    TMP DP  RH WIND       PRES   REMARKS
DFW AIRPORT    FAIR      63  44  50 NW6       30.03F
DALLAS LOVE    FAIR      64  45  49 N8        30.04F
FTW MEACHAM    FAIR      67  46  47 MISG      30.04F
FTW-ALLIANCE   FAIR      67  47  48 NW6       30.04F
FTW-NAS-JRB    FAIR      65  44  46 NW8       30.05F
FTW-SPINKS     SUNNY     64  45  48 CALM      30.06F
ARLINGTON      FAIR      64  45  49 NW10      30.04F
GRAND PRAIRIE  SUNNY     63  45  51 CALM      30.06F
ADDISON        SUNNY     63  45  51 N8        30.05F
MESQUITE       SUNNY     63  45  51 NW9       30.05F
LANCASTER      FAIR      62  45  55 NW10      30.05F
$$

TXZ091>094-102>105-117-120-121-131>134-261800-
NORTH CENTRAL TEXAS

CITY           SKY/WX    TMP DP  RH WIND       PRES   REMARKS
SHRMAN/DENISON FAIR      60  46  59 NW9       30.04F
GAINESVILLE    FAIR      62  44  52 NW7       30.06S
BOWIE          FAIR      63  44  50 CALM      30.04F
BRIDGEPORT     FAIR      64  43  47 CALM      30.06F
DECATUR        FAIR      64  45  50 CALM      30.04S
DENTON         FAIR      64  48  56 VRB7      30.04F
MCKINNEY       FAIR      62  46  55 N8        30.04F
BONHAM         FAIR      60  46  61 N12       30.04F
GREENVILLE     FAIR      64  46  52 NW10G16   30.04F
ROCKWALL       FAIR      62  47  56 MISG      30.05F
TERRELL        FAIR      63  45  51 N9        30.05F
WAXAHACHIE     FAIR      64  47  53 N10       30.05F
CLEBURNE       FAIR      64  45  48 VRB7      30.06F
GRANBURY       FAIR      68  44  41 NE6       30.06F
$$

TXZ083>090-098>101-113>116-127>130-139>142-154-155-261800-
WESTERN NORTH TEXAS

CITY           SKY/WX    TMP DP  RH WIND       PRES   REMARKS
WICHITA FALLS  FAIR      65  46  50 E7        30.02F
WF-KICKAPOO    FAIR      64  46  52 SE3       30.05F
VERNON         FAIR      68  45  43 S3        30.01F
ABILENE        FAIR      66  45  46 SW7       30.04F
GRAHAM           N/A     67  46  47 CALM      30.02F
BRECKENRIDGE   FAIR      68  43  40 SW3       30.04F
CISCO          FAIR      66  45  45 VRB5      30.05F
EASTLAND       FAIR      65  47  51 CALM      30.05F
RANGER         FAIR      66  46  48 W6        30.05F
MINERAL WELLS  FAIR      65  47  52 VRB5      30.03F
STEPHENVILLE   FAIR      66  45  45 CALM      30.07F
COMANCHE       FAIR      67  47  49 CALM      30.06F
BROWNWOOD      FAIR      66  39  37 CALM      30.06F
COLEMAN        FAIR      67  41  38 CALM      30.05F
BRADY          FAIR      68  36  30 S6        30.06F
$$

TXZ143>147-156>162-174-175-261800-
CENTRAL TEXAS

CITY           SKY/WX    TMP DP  RH WIND       PRES   REMARKS
WACO           FAIR      68  45  43 VRB3      30.05F
WACO-TSTC      SUNNY     66  45  45 NW6G12    30.05F
WACO-MCGREGOR  FAIR      68  46  45 N8        30.06S
HILLSBORO      FAIR      65  47  53 NW8       30.04F
CORSICANA      FAIR      63  48  58 NW9       30.06F
MEXIA          FAIR      64  45  50 NW12      30.05F
HEARNE         FAIR      65  45  48 N10G16    30.06F
CAMERON        FAIR      66  46  48 N9        30.06S
TEMPLE         FAIR      67  46  47 N12       30.06F
KILLEEN        NOT AVBL
KILLEEN-SKYLRK FAIR      66  47  50 VRB6      30.06F
GATESVILLE     FAIR      66  46  48 NE7       30.07S
HAMILTON       FAIR      67  44  43 N5        30.07S
LAMPASAS       FAIR      66  44  45 NE5       30.05S
$$

TXZ095>097-106>112-122>126-135>138-148>153-164>167-261800-
EAST TEXAS

CITY           SKY/WX    TMP DP  RH WIND       PRES   REMARKS
PARIS          PTSUNNY   60  49  66 N13       30.03F
SULPHUR SPRNGS FAIR      61  49  64 N9        30.05F
MOUNT PLEASANT FAIR      61  50  67 NW9       30.04F
GILMER         PTSUNNY   58  47  67 NW8G16    30.03S
MINEOLA        PTSUNNY   59  48  67 NW8       30.04S
TYLER          FAIR      63  45  51 N13       30.02F
LONGVIEW       PTSUNNY   60  49  66 NW13G18   30.01F
MARSHALL       PTSUNNY   58  46  64 NW9       30.04S
ATHENS         FAIR      63  45  51 N8        30.03F
PALESTINE      FAIR      63  48  58 NW9       30.05F
JACKSONVILLE   FAIR      61  47  59 N8        30.04S
HENDERSON      FAIR      62  48  60 NW7       30.03F
CENTER         FAIR      62  44  51 N10G17    30.01F
NACOGDOCHES      N/A     63  47  55 VRB7      30.02F
LUFKIN         FAIR      64  47  53 MISG      30.02F
$$

SUPPLEMENTAL OBSERVATIONS (NWS FORT WORTH AREA)

CITY           SKY/WX    TMP DP  RH WIND       PRES   REMARKS
$$

SUPPLEMENTAL OBSERVATIONS (NWS NORMAN AREA)

CITY           SKY/WX    TMP DP  RH WIND       PRES   REMARKS
GOODLETT         N/A     71  37  28 SW8       30.00S
ODELL            N/A     67  46  47 SE7       30.03F
CROWELL          N/A     70  43  37 S6        30.01F
KNOX CITY        N/A     71  40  33 W9G15     30.03F
SEYMOUR          N/A     67  48  49 S5        30.03F
$$

SUPPLEMENTAL OBSERVATIONS (NWS SAN ANGELO AREA)

CITY           SKY/WX    TMP DP  RH WIND       PRES   REMARKS
WEINERT          N/A     70  43  37 W9        30.03F
HASKELL          N/A     68  38  32 SW10      30.03F
THROCKMORTON     N/A     67  48  50 W6        30.05S
STAMFORD         N/A     68  45  43 S8        30.04F
CLYDE            N/A     66  45  46 S2        30.06S
$$

SUPPLEMENTAL OBSERVATIONS (NWS SHREVEPORT AREA)

CITY           SKY/WX    TMP DP  RH WIND       PRES   REMARKS
$$

SUPPLEMENTAL OBSERVATIONS ARE A COLLECTION OF AUTOMATED INSTRUMENTS
THAT ARE MAINTAINED BY A VARIETY OF FEDERAL AND STATE AGENCIES.
CERTAIN ELEMENTS...SUCH AS HUMIDITY VALUES AND SUSTAINED WIND
SPEEDS...MAY BE APPROXIMATED.





USA.gov is the U.S. government's official web portal to all federal, state and local government web resources and services.